• In Moldova, Republic
  • List of Countries
  • For 7 days
  • Water Temperature
  • Satellite Maps
  • Weather Map
  • Weather Widgets
  • user-avatar
    Login

    Hourly Weather Kaprun

    Today, 20 January, Saturday

    Time Temperature Precipitation Wind Pressure Humidity
    00:00 -15°C° 0 mm 2 mps 588 mmHg 82%
    01:00 -13°C° 0 mm 2 mps 588 mmHg 79%
    02:00 -13°C° 0.3 mm 2 mps 588 mmHg 83%
    03:00 -11°C° 0.3 mm 1 mps 589 mmHg 86%
    04:00 -10°C° 0.3 mm 1 mps 589 mmHg 90%
    05:00 -11°C° 0.2 mm 1 mps 589 mmHg 90%
    06:00 -11°C° 0.2 mm 1 mps 588 mmHg 90%
    07:00 -13°C° 0 mm 2 mps 588 mmHg 90%
    08:00 -13°C° 0 mm 2 mps 589 mmHg 89%
    09:00 -10°C° 0 mm 1 mps 589 mmHg 87%
    10:00 -9°C° 0 mm 1 mps 589 mmHg 85%
    11:00 -8°C° 0 mm 1 mps 589 mmHg 80%
    12:00 -7°C° 0 mm 1 mps 589 mmHg 75%
    13:00 -6°C° 0 mm 1 mps 589 mmHg 69%
    14:00 -7°C° 0 mm 1 mps 588 mmHg 74%
    15:00 -8°C° 0 mm 2 mps 587 mmHg 80%
    16:00 -9°C° 0 mm 2 mps 586 mmHg 85%
    17:00 -9°C° 0.2 mm 2 mps 586 mmHg 86%
    18:00 -10°C° 0.2 mm 2 mps 585 mmHg 88%
    19:00 -12°C° 0.2 mm 3 mps 584 mmHg 90%
    20:00 -12°C° 0.9 mm 3 mps 584 mmHg 91%
    21:00 -12°C° 0.9 mm 3 mps 583 mmHg 93%
    22:00 -12°C° 0.9 mm 3 mps 582 mmHg 95%
    23:00 -12°C° 1.8 mm 3 mps 582 mmHg 95%

    Tomorrow, 21 January, Sunday

    Time Temperature Precipitation Wind Pressure Humidity
    00:00 -12°C° 1.8 mm 3 mps 582 mmHg 95%
    01:00 -10°C° 1.8 mm 2 mps 581 mmHg 96%
    02:00 -10°C° 1.6 mm 2 mps 582 mmHg 96%
    03:00 -9°C° 1.6 mm 2 mps 582 mmHg 96%
    04:00 -9°C° 1.6 mm 2 mps 582 mmHg 96%
    05:00 -9°C° 1.1 mm 2 mps 583 mmHg 96%
    06:00 -8°C° 1.1 mm 2 mps 583 mmHg 96%
    07:00 -8°C° 1.1 mm 2 mps 584 mmHg 96%
    08:00 -9°C° 0.9 mm 3 mps 585 mmHg 96%
    09:00 -9°C° 0.9 mm 3 mps 585 mmHg 95%
    10:00 -9°C° 0.9 mm 3 mps 586 mmHg 94%
    11:00 -11°C° 0.6 mm 4 mps 586 mmHg 93%
    12:00 -11°C° 0.6 mm 4 mps 587 mmHg 91%
    13:00 -11°C° 0.6 mm 4 mps 587 mmHg 90%
    14:00 -12°C° 0.4 mm 4 mps 588 mmHg 90%
    15:00 -12°C° 0.4 mm 4 mps 588 mmHg 90%
    16:00 -12°C° 0.4 mm 3 mps 589 mmHg 91%
    17:00 -13°C° 0.2 mm 3 mps 589 mmHg 92%
    18:00 -13°C° 0.2 mm 3 mps 590 mmHg 93%
    19:00 -13°C° 0.2 mm 2 mps 590 mmHg 94%
    20:00 -13°C° 0.1 mm 2 mps 590 mmHg 93%
    21:00 -14°C° 0.1 mm 2 mps 590 mmHg 93%
    22:00 -14°C° 0.1 mm 2 mps 590 mmHg 93%
    23:00 -14°C° 0.3 mm 2 mps 590 mmHg 92%

    Day after tomorrow, 22 January, Monday

    Time Temperature Precipitation Wind Pressure Humidity
    00:00 -11°C° 0.3 mm 1 mps 590 mmHg 92%
    01:00 -11°C° 0.3 mm 1 mps 590 mmHg 92%
    02:00 -10°C° 1.2 mm 1 mps 590 mmHg 93%
    03:00 -10°C° 1.2 mm 1 mps 590 mmHg 95%
    04:00 -9°C° 1.2 mm 1 mps 589 mmHg 96%
    05:00 -8°C° 2.5 mm 1 mps 589 mmHg 96%
    06:00 -8°C° 2.5 mm 1 mps 589 mmHg 96%
    07:00 -8°C° 2.5 mm 1 mps 589 mmHg 96%
    08:00 -7°C° 2.3 mm 1 mps 590 mmHg 97%
    09:00 -7°C° 2.3 mm 1 mps 590 mmHg 97%
    10:00 -6°C° 2.3 mm 1 mps 591 mmHg 97%
    11:00 -6°C° 1.3 mm 2 mps 591 mmHg 97%
    12:00 -5°C° 1.3 mm 2 mps 591 mmHg 97%
    13:00 -4°C° 1.3 mm 2 mps 591 mmHg 97%
    14:00 -4°C° 0.5 mm 2 mps 592 mmHg 96%
    15:00 -3°C° 0.5 mm 2 mps 592 mmHg 96%
    16:00 -3°C° 0.5 mm 2 mps 592 mmHg 95%
    17:00 -3°C° 0.3 mm 2 mps 592 mmHg 95%
    18:00 -4°C° 0.3 mm 2 mps 592 mmHg 95%
    19:00 -5°C° 0.3 mm 2 mps 593 mmHg 95%
    20:00 -5°C° 0.3 mm 2 mps 593 mmHg 95%
    21:00 -5°C° 0.3 mm 2 mps 593 mmHg 95%
    22:00 -5°C° 0.3 mm 2 mps 594 mmHg 95%
    23:00 -5°C° 0.1 mm 2 mps 594 mmHg 95%

    23 January, Tuesday

    Time Temperature Precipitation Wind Pressure Humidity
    00:00 -5°C° 0.1 mm 2 mps 594 mmHg 95%
    01:00 -5°C° 0.1 mm 2 mps 594 mmHg 95%
    02:00 -6°C° 0.1 mm 2 mps 594 mmHg 95%
    03:00 -6°C° 0.1 mm 2 mps 594 mmHg 95%
    04:00 -7°C° 0.1 mm 2 mps 594 mmHg 95%
    05:00 -7°C° 0.1 mm 2 mps 595 mmHg 94%
    06:00 -7°C° 0.1 mm 2 mps 595 mmHg 94%
    07:00 -8°C° 0.1 mm 2 mps 595 mmHg 94%
    08:00 -7°C° 0.1 mm 2 mps 596 mmHg 94%
    09:00 -6°C° 0.1 mm 2 mps 597 mmHg 94%
    10:00 -6°C° 0.1 mm 2 mps 598 mmHg 94%
    11:00 -5°C° 0 mm 2 mps 598 mmHg 94%
    12:00 -4°C° 0 mm 2 mps 598 mmHg 94%
    13:00 -3°C° 0 mm 2 mps 598 mmHg 94%
    14:00 -4°C° 0 mm 2 mps 598 mmHg 93%
    15:00 -2°C° 0 mm 1 mps 598 mmHg 91%
    16:00 -3°C° 0 mm 1 mps 598 mmHg 90%
    17:00 -4°C° 0 mm 1 mps 598 mmHg 84%
    18:00 -8°C° 0 mm 2 mps 598 mmHg 78%
    19:00 -9°C° 0 mm 2 mps 598 mmHg 72%
    20:00 -9°C° 0 mm 2 mps 598 mmHg 69%
    21:00 -9°C° 0 mm 2 mps 598 mmHg 67%
    22:00 -10°C° 0 mm 2 mps 598 mmHg 64%
    23:00 -10°C° 0 mm 2 mps 598 mmHg 63%

    24 January, Wednesday

    Time Temperature Precipitation Wind Pressure Humidity
    00:00 -9°C° 0 mm 1 mps 598 mmHg 62%
    01:00 -9°C° 0 mm 1 mps 598 mmHg 61%
    02:00 -9°C° 0 mm 1 mps 598 mmHg 61%
    03:00 -9°C° 0 mm 1 mps 598 mmHg 60%
    04:00 -8°C° 0 mm 1 mps 598 mmHg 60%
    05:00 -8°C° 0 mm 1 mps 598 mmHg 59%
    06:00 -8°C° 0 mm 1 mps 598 mmHg 59%
    07:00 -8°C° 0 mm 1 mps 599 mmHg 58%
    08:00 -6°C° 0 mm 1 mps 599 mmHg 63%
    09:00 -4°C° 0 mm 1 mps 600 mmHg 67%
    10:00 -2°C° 0 mm 1 mps 601 mmHg 71%
    11:00 -1°C° 0 mm 1 mps 601 mmHg 79%
    12:00 -1°C° 0 mm 1 mps 601 mmHg 86%
    13:00 0°C° 0 mm 1 mps 601 mmHg 93%
    14:00 0°C° 0 mm 1 mps 601 mmHg 90%
    15:00 -1°C° 0 mm 1 mps 600 mmHg 87%
    16:00 -1°C° 0 mm 1 mps 600 mmHg 84%
    17:00 -3°C° 0 mm 1 mps 599 mmHg 79%
    18:00 -6°C° 0 mm 2 mps 599 mmHg 73%
    19:00 -7°C° 0 mm 2 mps 598 mmHg 68%
    20:00 -7°C° 0 mm 2 mps 598 mmHg 67%
    21:00 -8°C° 0 mm 2 mps 598 mmHg 65%
    22:00 -8°C° 0 mm 2 mps 598 mmHg 64%
    23:00 -8°C° 0 mm 2 mps 598 mmHg 64%

    25 January, Thursday

    Time Temperature Precipitation Wind Pressure Humidity
    00:00 -8°C° 0 mm 2 mps 598 mmHg 64%
    01:00 -8°C° 0 mm 2 mps 598 mmHg 64%
    02:00 -8°C° 0 mm 2 mps 597 mmHg 63%
    03:00 -8°C° 0 mm 2 mps 597 mmHg 63%
    04:00 -8°C° 0 mm 2 mps 597 mmHg 63%
    05:00 -8°C° 0 mm 2 mps 596 mmHg 64%
    06:00 -8°C° 0 mm 2 mps 596 mmHg 64%
    07:00 -8°C° 0 mm 2 mps 596 mmHg 64%
    08:00 -7°C° 0 mm 2 mps 596 mmHg 68%
    09:00 -6°C° 0 mm 2 mps 597 mmHg 71%
    10:00 -4°C° 0 mm 2 mps 597 mmHg 75%
    11:00 -4°C° 0 mm 2 mps 597 mmHg 80%
    12:00 -3°C° 0 mm 2 mps 597 mmHg 85%
    13:00 -2°C° 0 mm 2 mps 597 mmHg 90%
    14:00 -3°C° 0 mm 2 mps 596 mmHg 90%
    15:00 -3°C° 0 mm 2 mps 596 mmHg 91%
    16:00 -4°C° 0 mm 2 mps 596 mmHg 91%
    17:00 -3°C° 0 mm 1 mps 595 mmHg 88%
    18:00 -4°C° 0 mm 1 mps 595 mmHg 85%
    19:00 -6°C° 0 mm 1 mps 594 mmHg 82%
    20:00 -7°C° 0 mm 1 mps 594 mmHg 81%
    21:00 -7°C° 0 mm 1 mps 594 mmHg 79%
    22:00 -7°C° 0 mm 1 mps 594 mmHg 77%
    23:00 -7°C° 0 mm 1 mps 594 mmHg 77%
    Show more